DW1114 Weather Reports


Display with metric or nautical units.
time (UTC)temp
F
wind
direction
speed
MPH
gust
MPH
rain 1hr
in
rain 24hr
in
rain mn
in
humidity
%
barometer
mb
20260504214403 73 204 5.0 11.0 0.00 0.00 0.00 1007.1
20260504213903 73 216 3.0 11.0 0.00 0.00 0.00 1007.5
20260504213403 73 202 3.0 11.0 0.00 0.00 0.00 1006.8
20260504212903 72 197 4.0 10.0 0.00 0.00 0.00 1006.8
20260504212404 71 237 4.0 10.0 0.00 0.00 0.00 1007.1
20260504211903 70 227 5.0 11.0 0.00 0.00 0.00 1007.1
20260504211403 70 202 3.0 11.0 0.00 0.00 0.00 1006.1
20260504210903 70 195 3.0 7.0 0.00 0.00 0.00 1006.5
20260504210403 70 203 3.0 7.0 0.00 0.00 0.00 1007.5
20260504205903 70 217 2.0 8.0 0.00 0.00 0.00 1007.1
20260504205425 69 197 4.0 8.0 0.00 0.00 0.00 1006.8
20260504204903 69 199 3.0 10.0 0.00 0.00 0.00 1007.1
20260504204403 69 187 1.0 12.0 0.00 0.00 0.00 1007.8
20260504203903 69 235 5.0 11.0 0.00 0.00 0.00 1007.8
20260504203403 68 245 2.0 9.0 0.00 0.00 0.00 1007.8
20260504202945 68 227 3.0 9.0 0.00 0.00 0.00 1008.2
20260504202403 68 192 4.0 14.0 0.00 0.00 0.00 1008.2
20260504201924 68 217 4.0 14.0 0.00 0.00 0.00 1007.8
20260504201403 68 205 3.0 6.0 0.00 0.00 0.00 1008.2
20260504200903 68 201 3.0 6.0 0.00 0.00 0.00 1008.2
20260504200403 68 190 2.0 9.0 0.00 0.00 0.00 1008.2
20260504195903 68 213 5.0 9.0 0.00 0.00 0.00 1007.8
20260504195403 68 185 3.0 8.0 0.00 0.00 0.00 1008.2
20260504194903 68 226 4.0 8.0 0.00 0.00 0.00 1007.5
20260504194403 67 196 3.0 7.0 0.00 0.00 0.00 1007.8
20260504193924 67 180 4.0 7.0 0.00 0.00 0.00 1007.8
20260504193403 67 199 2.0 7.0 0.00 0.00 0.00 1008.2
20260504192924 67 205 4.0 9.0 0.00 0.00 0.00 1008.5
20260504192403 67 190 3.0 9.0 0.00 0.00 0.00 1008.8
20260504191903 68 194 4.0 9.0 0.00 0.00 0.00 1009.5
20260504191403 68 200 3.0 16.0 0.00 0.00 0.00 1008.8
20260504190924 68 208 6.0 16.0 0.00 0.00 0.00 1008.8
20260504190404 68 193 5.0 16.0 0.00 0.00 0.00 1008.8
20260504185903 69 209 6.0 10.0 0.00 0.00 0.00 1008.5
20260504185403 70 219 5.0 12.0 0.00 0.00 0.00 1008.5
20260504184903 70 203 3.0 13.0 0.00 0.00 0.00 1009.2
20260504184403 70 220 3.0 13.0 0.00 0.00 0.00 1008.5
20260504183903 70 212 4.0 10.0 0.00 0.00 0.00 1008.5
20260504183403 70 192 2.0 11.0 0.00 0.00 0.00 1008.5
20260504182903 71 214 4.0 12.0 0.00 0.00 0.00 1008.5
20260504182404 71 221 4.0 12.0 0.00 0.00 0.00 1008.5
20260504181925 71 205 5.0 11.0 0.00 0.00 0.00 1008.5
20260504181403 70 200 4.0 12.0 0.00 0.00 0.00 1007.8
20260504180903 70 202 4.0 12.0 0.00 0.00 0.00 1008.2
20260504180403 72 195 3.0 10.0 0.00 0.00 0.00 1007.5
20260504175903 71 224 4.0 13.0 0.00 0.00 0.00 1006.8
20260504175403 70 205 5.0 13.0 0.00 0.00 0.00 1007.8
20260504174903 70 202 3.0 12.0 0.00 0.00 0.00 1007.8
20260504174403 70 205 7.0 12.0 0.00 0.00 0.00 1007.8
20260504173902 71 204 4.0 11.0 0.00 0.00 0.00 1007.5
20260504173403 70 212 3.0 11.0 0.00 0.00 0.00 1008.2
20260504172904 69 185 6.0 10.0 0.00 0.00 0.00 1007.8
20260504172403 70 202 4.0 8.0 0.00 0.00 0.00 1007.8
20260504171903 70 217 4.0 8.0 0.00 0.00 0.00 1008.2
20260504171402 70 228 3.0 12.0 0.00 0.00 0.00 1007.8
20260504170903 69 196 4.0 12.0 0.00 0.00 0.00 1007.5
20260504170404 69 199 4.0 10.0 0.00 0.00 0.00 1008.2
20260504160403 67 212 3.0 7.0 0.00 0.00 0.00 1008.5
20260504150903 64 197 4.0 7.0 0.00 0.00 0.00 1008.5
20260504150403 63 200 3.0 8.0 0.00 0.00 0.00 1008.2
20260504140903 60 184 3.0 10.0 0.00 0.00 0.00 1008.5
20260504140403 59 185 4.0 7.0 0.00 0.00 0.00 1008.8
20260504130403 56 184 4.0 7.0 0.00 0.00 0.00 1009.2
20260504110403 51 187 3.0 5.0 0.00 0.00 0.00 1008.8
20260504100403 50 200 1.0 5.0 0.00 0.00 0.00 1009.5
20260504081903 51 197 2.0 4.0 0.00 0.00 0.00 1010.2
20260504081403 51 205 1.0 5.0 0.00 0.00 0.00 1010.5
20260504080903 52 189 3.0 5.0 0.00 0.00 0.00 1010.2
20260504080402 51 189 2.0 5.0 0.00 0.00 0.00 1010.5
20260504070403 52 187 3.0 7.0 0.00 0.00 0.00 1010.9
20260504050424 53 188 3.0 5.0 0.00 0.00 0.00 1011.5
20260504045903 54 193 3.0 5.0 0.00 0.00 0.00 1011.5
20260504045403 54 196 3.0 5.0 0.00 0.00 0.00 1011.5
20260504044903 54 192 3.0 6.0 0.00 0.00 0.00 1011.9
20260504044403 54 192 3.0 6.0 0.00 0.00 0.00 1011.5
20260504043903 54 192 2.0 6.0 0.00 0.00 0.00 1011.5
20260504043402 54 188 3.0 5.0 0.00 0.00 0.00 1011.9
20260504042903 54 191 2.0 5.0 0.00 0.00 0.00 1011.5
20260504042402 54 187 3.0 7.0 0.00 0.00 0.00 1011.9
20260504041903 54 196 4.0 7.0 0.00 0.00 0.00 1011.5
20260504041403 54 190 3.0 4.0 0.00 0.00 0.00 1012.6
20260504040903 54 185 2.0 4.0 0.00 0.00 0.00 1012.2
20260504040402 54 183 3.0 4.0 0.00 0.00 0.00 1012.2
20260504035924 53 186 2.0 3.0 0.00 0.00 0.00 1011.5
20260504035403 53 195 2.0 3.0 0.00 0.00 0.00 1011.9
20260504034903 53 190 2.0 3.0 0.00 0.00 0.00 1012.2
20260504034403 53 184 2.0 3.0 0.00 0.00 0.00 1011.9
20260504033903 53 188 2.0 3.0 0.00 0.00 0.00 1011.9
20260504033403 53 188 2.0 2.0 0.00 0.00 0.00 1011.9
20260504032902 53 186 2.0 3.0 0.00 0.00 0.00 1012.9
20260504032403 53 189 2.0 3.0 0.00 0.00 0.00 1012.2
20260504031903 53 182 1.0 3.0 0.00 0.00 0.00 1012.2
20260504031403 52 200 0.0 3.0 0.00 0.00 0.00 1012.6
20260504030903 52 180 0.0 2.0 0.00 0.00 0.00 1012.6
20260504030402 52 168 0.0 2.0 0.00 0.00 0.00 1012.6
20260504025903 52 169 0.0 2.0 0.00 0.00 0.00 1012.2
20260504025403 52 163 0.0 2.0 0.00 0.00 0.00 1012.6
20260504024903 52 163 0.0 2.0 0.00 0.00 0.00 1012.6
20260504024403 52 161 0.0 2.0 0.00 0.00 0.00 1012.6
20260504023902 52 163 0.0 1.0 0.00 0.00 0.00 1012.9
20260504023424 52 183 0.0 2.0 0.00 0.00 0.00 1012.6
20260504022903 51 161 0.0 2.0 0.00 0.00 0.00 1012.9
20260504022403 51 171 0.0 3.0 0.00 0.00 0.00 1012.9
20260504021903 51 168 1.0 3.0 0.00 0.00 0.00 1012.2
20260504021403 51 157 0.0 3.0 0.00 0.00 0.00 1012.6
20260504020903 51 146 0.0 7.0 0.00 0.00 0.00 1012.6
20260504020424 51 143 0.0 7.0 0.00 0.00 0.00 1012.9
20260504015924 51 135 0.0 5.0 0.00 0.00 0.00 1012.6
20260504015424 51 168 0.0 3.0 0.00 0.00 0.00 1012.2
20260504014903 50 165 0.0 4.0 0.00 0.00 0.00 1012.6
20260504013403 51 138 0.0 5.0 0.00 0.00 0.00 1012.2
20260504012924 50 138 0.0 2.0 0.00 0.00 0.00 1012.6
20260504012446 50 146 0.0 2.0 0.00 0.00 0.00 1012.9
20260504011903 50 140 1.0 3.0 0.00 0.00 0.00 1012.6
20260504011403 50 156 2.0 3.0 0.00 0.00 0.00 1012.6
20260504010903 50 160 1.0 3.0 0.00 0.00 0.00 1012.2
20260504010403 50 158 0.0 4.0 0.00 0.00 0.00 1012.9
20260504005903 50 154 0.0 4.0 0.00 0.00 0.00 1012.6
20260504005403 50 135 0.0 3.0 0.00 0.00 0.00 1012.9
20260504004903 50 157 1.0 3.0 0.00 0.00 0.00 1012.6
20260504004403 50 156 0.0 4.0 0.00 0.00 0.00 1013.2
20260504003903 50 140 2.0 4.0 0.00 0.00 0.00 1013.2
20260504003403 50 146 2.0 4.0 0.00 0.00 0.00 1012.9
20260504002903 50 141 2.0 4.0 0.00 0.00 0.00 1013.2
20260504002403 50 145 2.0 4.0 0.00 0.00 0.00 1012.9
20260504001903 50 142 1.0 4.0 0.00 0.00 0.00 1012.6
20260504001403 50 156 2.0 3.0 0.00 0.00 0.00 1012.9
20260504000924 50 138 0.0 3.0 0.00 0.00 0.00 1013.6
20260504000403 50 119 0.0 3.0 0.00 0.00 0.00 1013.6
20260503235903 50 115 0.0 3.0 0.00 0.00 0.00 1012.6
20260503235403 50 136 2.0 3.0 0.00 0.00 0.00 1012.6
20260503234903 50 153 2.0 3.0 0.00 0.00 0.00 1012.6
20260503234404 50 140 2.0 3.0 0.00 0.00 0.00 1012.6
20260503233923 50 150 2.0 4.0 0.00 0.00 0.00 1012.9
20260503233403 50 149 3.0 4.0 0.00 0.00 0.00 1012.9
20260503232902 50 152 2.0 4.0 0.00 0.00 0.00 1012.2
20260503232403 50 144 2.0 4.0 0.00 0.00 0.00 1012.2
20260503231902 50 150 3.0 5.0 0.00 0.00 0.00 1012.6
20260503231403 50 125 2.0 5.0 0.00 0.00 0.00 1012.6
20260503225903 50 123 1.0 6.0 0.00 0.00 0.00 1013.2
20260503225403 50 137 2.0 6.0 0.00 0.00 0.00 1013.2
20260503224945 50 110 2.0 7.0 0.00 0.00 0.00 1013.2
20260503224403 50 119 2.0 7.0 0.00 0.00 0.00 1013.9
20260503223903 50 147 2.0 4.0 0.00 0.00 0.00 1014.3
20260503222903 51 129 2.0 6.0 0.00 0.00 0.00 1013.6
20260503222403 51 51 0.0 3.0 0.00 0.00 0.00 1013.9
20260503221902 51 81 1.0 4.0 0.00 0.00 0.00 1013.9
20260503221403 51 61 3.0 4.0 0.00 0.00 0.00 1014.3
20260503220925 51 48 1.0 5.0 0.00 0.00 0.00 1014.6
20260503220424 51 56 3.0 5.0 0.00 0.00 0.00 1013.9
20260503215924 51 59 2.0 4.0 0.00 0.00 0.00 1014.6
20260503215403 50 72 2.0 4.0 0.00 0.00 0.00 1013.9
20260503214902 50 79 0.0 5.0 0.00 0.00 0.00 1013.6